DW7756 Weather Reports


Display with metric or nautical units.
time (UTC)temp
F
wind
direction
speed
MPH
gust
MPH
rain 1hr
in
rain 24hr
in
rain mn
in
humidity
%
barometer
mb
20260905231538 79 0 0.0 2.0 0.00 0.23 0.00 79 1012.9
20260905230040 79 0 0.0 3.0 0.00 0.23 0.00 79 1012.9
20260905224548 80 88 0.0 4.0 0.00 0.24 0.00 79 1013.1
20260905223038 81 94 1.0 7.0 0.00 0.24 0.00 77 1013.3
20260905221537 82 0 0.0 3.0 0.00 0.24 0.00 77 1013.4
20260905220040 83 99 0.0 4.0 0.00 0.24 0.00 76 1013.0
20260905214537 84 36 1.0 6.0 0.00 0.24 0.00 74 1012.7
20260905213037 85 44 2.0 6.0 0.00 0.24 0.00 74 1013.3
20260905211541 86 15 1.0 8.0 0.00 0.24 0.00 74 1012.5
20260905210036 86 9 4.0 9.0 0.00 0.24 0.00 72 1012.9
20260905204543 88 5 1.0 14.0 0.00 0.24 0.00 70 1012.5
20260905203040 94 9 2.0 7.0 0.00 0.24 0.00 61 1012.7
20260905201536 94 182 1.0 6.0 0.00 0.24 0.00 57 1012.3
20260905200041 95 308 0.0 6.0 0.00 0.24 0.00 58 1012.3
20260905194539 96 241 2.0 7.0 0.00 0.24 0.00 56 1012.4
20260905193035 95 197 2.0 6.0 0.00 0.24 0.00 58 1012.5
20260905191537 94 273 1.0 5.0 0.00 0.24 0.00 61 1012.5
20260905190035 94 21 2.0 9.0 0.00 0.24 0.00 59 1012.7
20260905184559 94 235 2.0 9.0 0.00 0.24 0.00 60 1012.7
20260905183045 94 215 2.0 9.0 0.00 0.24 0.00 63 1012.7
20260905181546 93 299 4.0 8.0 0.00 0.24 0.00 63 1012.9
20260905180037 93 191 3.0 8.0 0.00 0.24 0.00 64 1013.1
20260905174538 92 259 3.0 10.0 0.00 0.24 0.00 66 1013.2
20260905173036 92 265 2.0 11.0 0.00 0.24 0.00 67 1013.4
20260905171535 90 274 5.0 10.0 0.00 0.24 0.00 67 1013.5
20260905170036 90 243 5.0 11.0 0.00 0.24 0.00 67 1013.9
20260905164539 89 221 3.0 12.0 0.00 0.24 0.00 70 1014.1
20260905163036 88 284 4.0 10.0 0.00 0.24 0.00 72 1014.4
20260905161541 88 236 3.0 9.0 0.00 0.24 0.00 72 1014.5
20260905160039 87 265 3.0 8.0 0.00 0.24 0.00 74 1014.6
20260905154600 86 285 3.0 7.0 0.00 0.24 0.00 82 1014.9
20260905153039 84 240 3.0 6.0 0.00 0.24 0.00 87 1015.1
20260905151541 82 233 1.0 4.0 0.00 0.24 0.00 90 1015.2
20260905150038 81 304 1.0 3.0 0.00 0.24 0.00 91 1015.2
20260905144539 80 212 2.0 4.0 0.00 0.24 0.00 91 1015.2
20260905143036 79 250 2.0 4.0 0.00 0.24 0.00 91 1015.1
20260905141540 79 230 0.0 4.0 0.00 0.24 0.00 92 1015.0
20260905140039 79 226 1.0 5.0 0.00 0.24 0.00 92 1014.9
20260905134538 78 238 1.0 4.0 0.00 0.24 0.00 92 1014.9
20260905133047 78 217 1.0 3.0 0.00 0.24 0.00 92 1014.8
20260905131541 77 250 1.0 5.0 0.00 0.24 0.00 92 1014.8
20260905130046 77 230 2.0 4.0 0.00 0.24 0.00 91 1014.7
20260905124539 77 223 2.0 5.0 0.00 0.24 0.00 91 1014.9
20260905123035 76 242 2.0 3.0 0.00 0.24 0.00 91 1014.6
20260905121537 76 0 0.0 4.0 0.00 0.24 0.00 91 1014.7
20260905120042 76 191 1.0 2.0 0.00 0.24 0.00 91 1014.6
20260905114539 76 0 0.0 2.0 0.00 0.24 0.00 91 1014.6
20260905113046 76 191 0.0 2.0 0.00 0.24 0.00 91 1014.6
20260905111558 76 150 0.0 2.0 0.00 0.24 0.00 91 1014.1
20260905110041 76 195 0.0 2.0 0.00 0.24 0.00 91 1014.0
20260905104537 76 200 0.0 3.0 0.00 0.24 0.00 91 1013.8
20260905103038 76 0 0.0 0.0 0.00 0.24 0.00 91 1013.9
20260905101548 76 0 0.0 0.0 0.00 0.24 0.00 91 1013.8
20260905100046 76 0 0.0 0.0 0.00 0.24 0.00 91 1013.7
20260905094539 76 0 0.0 0.0 0.00 0.24 0.00 91 1013.7
20260905093035 76 0 0.0 0.0 0.00 0.24 0.00 91 1013.8
20260905091534 76 0 0.0 0.0 0.00 0.24 0.00 91 1013.8
20260905090038 76 0 0.0 0.0 0.00 0.24 0.00 91 1014.0
20260905084547 77 0 0.0 0.0 0.00 0.24 0.00 91 1014.1
20260905083035 76 0 0.0 0.0 0.00 0.24 0.00 91 1013.9
20260905081535 76 0 0.0 0.0 0.00 0.24 0.00 91 1013.9
20260905080040 76 0 0.0 0.0 0.00 0.24 0.00 91 1013.8
20260905074542 76 0 0.0 0.0 0.00 0.24 0.00 91 1013.9
20260905073040 76 0 0.0 0.0 0.00 0.24 0.00 91 1013.8
20260905071536 76 0 0.0 0.0 0.00 0.24 0.00 91 1013.7
20260905070038 77 0 0.0 0.0 0.00 0.24 0.00 90 1013.8
20260905064534 77 0 0.0 0.0 0.00 0.24 0.00 90 1014.1
20260905063039 77 0 0.0 2.0 0.00 0.24 0.00 90 1014.2
20260905061537 77 244 0.0 2.0 0.00 0.24 0.00 90 1014.2
20260905060038 77 0 0.0 0.0 0.00 0.24 0.00 90 1014.3
20260905054538 77 0 0.0 1.0 0.00 0.24 0.00 90 1014.7
20260905053042 77 244 1.0 2.0 0.00 0.24 0.00 90 1014.7
20260905051544 76 0 0.0 0.0 0.00 0.24 0.00 90 1014.9
20260905050040 77 0 0.0 0.0 0.00 0.24 0.00 90 1014.9
20260905044540 77 0 0.0 0.0 0.00 0.24 0.00 90 1015.0
20260905043051 77 0 0.0 0.0 0.00 0.24 0.00 90 1015.0
20260905041540 77 0 0.0 0.0 0.00 0.24 0.00 90 1015.3
20260905040042 77 0 0.0 2.0 0.01 0.24 0.00 90 1015.3
20260905034552 77 0 0.0 2.0 0.11 0.24 0.24 90 1015.4
20260905033107 77 0 0.0 2.0 0.12 0.24 0.24 90 1015.3
20260905031551 77 244 1.0 2.0 0.12 0.24 0.24 90 1015.5
20260905030050 77 0 0.0 2.0 0.17 0.23 0.23 89 1015.5
20260905024536 77 232 1.0 2.0 0.07 0.13 0.13 89 1015.8
20260905023049 77 0 0.0 2.0 0.06 0.12 0.12 89 1015.7
20260905021541 76 263 0.0 2.0 0.06 0.12 0.12 89 1015.6
20260905020039 76 284 2.0 3.0 0.00 0.06 0.06 89 1015.7
20260905014535 76 0 0.0 2.0 0.00 0.06 0.06 88 1015.5
20260905013042 76 94 0.0 2.0 0.01 0.06 0.06 88 1015.5
20260905011541 76 94 1.0 2.0 0.01 0.06 0.06 88 1015.4
20260905010041 76 94 0.0 3.0 0.03 0.06 0.06 88 1015.1
20260905004538 76 0 0.0 0.0 0.04 0.06 0.06 87 1015.1
20260905003041 76 0 0.0 0.0 0.03 0.05 0.05 87 1015.0
20260905001543 76 0 0.0 0.0 0.02 0.04 0.04 87 1015.1
20260905000038 76 0 0.0 2.0 0.02 0.03 0.03 86 1015.3
20260904234535 76 55 1.0 2.0 0.02 0.02 0.02 85 1015.8
20260904233046 76 0 0.0 2.0 0.02 0.02 0.02 85 1015.4